2019-087C (44840 NORAD) Tracking and Keplerian Element Data

This shows tracking and keplerian element data for the satellite.

Feedback or suggestion? Click here.




ElementValue
Catalog44840
Name2019-087C
Epoch Orbit636
Epoch Day18.2057185
Epoch Year2020
RAAN176.9338
Inclination97.3823
Eccentricity0.0013791
Argument of Perigee118.4137
Mean Anonmoly2.4797
Mean Motion15.21192221
Decay Rate8.02E-06
L11 44840U 19087C 20018.20571850 .00000802 00000-0 38954-4 0 9997
L22 44840 97.3823 176.9338 0013791 118.4137 2.4797 15.21192221 6367

Live tracking and technical data element details for 2019-087C (NORAD 44840). 2019-087C can be tracked NOW for your location showing map with azimuth and elevation plus other details from your city location.

Track the satellite on the map from your city or location and see movement details for azimuth, elevation, latitude, longitude, range, height, and movement on the map or in text.







IsCatalogInMostPopularTable: catalog: 44840, numindb: 6
Update: records affected: 1



GetName: 44840 2019-087C

Hit Count: updated at: Mon, 20 Jan 2020 02:52:45 GMT